Regional Weather Roundup
Issued by NWS

Home | Current Version | Previous Version | Graphics & Text | Print | Product List | Glossary On
Versions: 1 2 3 4 5 6 7 8 9 10 11 12 13 14 15 16 17 18 19 20 21 22 23 24 25 26 27 28 29 30 31 32 33 34 35 36 37 38 39 40 41 42 43 44 45 46 47 48 49 50
000
ASUS43 KMKX 191211
RWRWI

WISCONSIN REGIONAL WEATHER ROUNDUP
NATIONAL WEATHER SERVICE MILWAUKEE/SULLIVAN WI
700 AM CDT FRI SEP 19 2014

NOTE: "FAIR" INDICATES FEW OR NO CLOUDS BELOW 12,000 FEET WITH NO
SIGNIFICANT WEATHER AND/OR OBSTRUCTIONS TO VISIBILITY.

WIZ001-002-006>008-014>016-023>028-191300-
NORTHWEST WISCONSIN

CITY           SKY/WX    TMP DP  RH WIND       PRES   REMARKS
SUPERIOR ARPT  CLOUDY    48  48 100 CALM      29.89F FOG
6HR MIN TEMP:  44; 6HR MAX TEMP:  48;

ASHLAND        MOCLDY    56  50  80 S10       29.95S
6HR MIN TEMP:  38; 6HR MAX TEMP:  56;

HAYWARD        MOCLDY    57  50  77 S17G23    29.98S
6HR MIN TEMP:  52; 6HR MAX TEMP:  57;

SIREN          MOCLDY    57  51  79 S14G20    29.93F
6HR MIN TEMP:  55; 6HR MAX TEMP:  58;

RICE LAKE      MOCLDY    51  50  94 SE7       30.02R FOG
6HR MIN TEMP:  51; 6HR MAX TEMP:  52;

LADYSMITH      PTCLDY    53  51  93 SE7       30.04S FOG
6HR MIN TEMP:  52; 6HR MAX TEMP:  53;

EAU CLAIRE     CLEAR     54  51  90 S9        30.02R
6HR MIN TEMP:  53; 6HR MAX TEMP:  54;

MENOMONIE      MOSUNNY   52  51  97 SE7       30.01S FOG
6HR MIN TEMP:  52; 6HR MAX TEMP:  53;

NEW RICHMOND   MOCLDY    56  49  77 S8        29.98S
6HR MIN TEMP:  56; 6HR MAX TEMP:  56;

OSCEOLA        MOCLDY    58  51  78 SE12      29.97F
6HR MIN TEMP:  56; 6HR MAX TEMP:  58;

$$

WIZ003>005-009-010-017-018-191300-
NORTH CENTRAL WISCONSIN

CITY           SKY/WX    TMP DP  RH WIND       PRES   REMARKS
WOODRUFF       CLOUDY    55  52  90 S10       30.05R FOG
6HR MIN TEMP:  52; 6HR MAX TEMP:  55;

RHINELANDER    CLOUDY    49  48  97 S6        30.07F FOG
6HR MIN TEMP:  47; 6HR MAX TEMP:  51;

EAGLE RIVER    CLOUDY    50  49  98 S8        30.05F FOG
6HR MIN TEMP:  45; 6HR MAX TEMP:  51;

LAND O LAKES   CLOUDY    52  50  93 S7        30.05S FOG
6HR MIN TEMP:  47; 6HR MAX TEMP:  52;

PHILLIPS       MOCLDY    51  50  95 S12       30.02S
6HR MIN TEMP:  49; 6HR MAX TEMP:  51;

TOMAHAWK       MOCLDY    49  47  96 S3        30.07S FOG
6HR MIN TEMP:  46; 6HR MAX TEMP:  50;

MEDFORD        MOCLDY    48  48  97 S7        30.07R FOG
6HR MIN TEMP:  48; 6HR MAX TEMP:  50;

MERRILL        CLOUDY    49  49 100 S5        30.08S FOG
6HR MIN TEMP:  46; 6HR MAX TEMP:  51;

$$

WIZ029-030-035-036-043>047-191300-
CENTRAL WISCONSIN

CITY           SKY/WX    TMP DP  RH WIND       PRES   REMARKS
WAUSAU         CLOUDY    50  49  96 S6        30.09R FOG
6HR MIN TEMP:  47; 6HR MAX TEMP:  51;

MOSINEE        CLOUDY    48  48 100 SE8       30.10S FOG
MARSHFIELD     CLOUDY    51  50  96 S9        30.08R FOG
6HR MIN TEMP:  49; 6HR MAX TEMP:  52;

STEVENS POINT  CLOUDY    47  47  99 S6        30.11S FOG
6HR MIN TEMP:  46; 6HR MAX TEMP:  49;

WAUPACA        FOG       51  50  95 SE3       30.13S VSB 1/4
6HR MIN TEMP:  46; 6HR MAX TEMP:  51;

WAUTOMA        CLOUDY    53  53 100 S8        30.13S FOG
6HR MIN TEMP:  43; 6HR MAX TEMP:  53;

WISC RAPIDS    CLOUDY    50  49  96 S5        30.11S FOG
6HR MIN TEMP:  49; 6HR MAX TEMP:  51;

CAMP DOUGLAS   PTCLDY    46  46 100 SE8       30.09S FOG
$$

WIZ011>013-019>022-031-037>040-048>050-191300-
NORTHEAST WISCONSIN

CITY           SKY/WX    TMP DP  RH WIND       PRES   REMARKS
ANTIGO         CLOUDY    47  47 100 S10       30.10F FOG
6HR MIN TEMP:  46; 6HR MAX TEMP:  48;

STURGEON BAY   CLOUDY    55  52  88 S12       30.14F
6HR MIN TEMP:  45; 6HR MAX TEMP:  55;

GREEN BAY      CLOUDY    52  52 100 S5        30.14R FOG
6HR MIN TEMP:  42; 6HR MAX TEMP:  52;

MANITOWOC      CLOUDY    57  56  96 S9        30.15S FOG
6HR MIN TEMP:  44; 6HR MAX TEMP:  57;

APPLETON         N/A     54  54 100 S8        30.14S FOG
CLINTONVILLE   FOG       46  46 100 CALM      30.13R VSB 1/4
OSHKOSH        CLOUDY    54  54 100 S8        30.13S FOG
6HR MIN TEMP:  43; 6HR MAX TEMP:  55;

$$

WIZ032>034-041-042-053>061-191300-
SOUTHWEST WISCONSIN

CITY           SKY/WX    TMP DP  RH WIND       PRES   REMARKS
LA CROSSE      CLEAR     56  51  84 SE10      30.04S
6HR MIN TEMP:  56; 6HR MAX TEMP:  59;

SPARTA         CLEAR     54  49  82 S12       30.07S
6HR MIN TEMP:  49; 6HR MAX TEMP:  56;

VIROQUA        FAIR      51  51 100 S9        30.07S
6HR MIN TEMP:  50; 6HR MAX TEMP:  54;

BOSCOBEL       MOCLDY    51  48  89 CALM      30.10R FOG
6HR MIN TEMP:  50; 6HR MAX TEMP:  55;

PRAIRIE DU CHI CLEAR     51  49  93 E5        30.08R FOG
6HR MIN TEMP:  51; 6HR MAX TEMP:  56;

PLATTEVILLE    FAIR      49  49  97 CALM      30.11S
6HR MIN TEMP:  49; 6HR MAX TEMP:  53;

$$

WIZ056-057-062-063-064-067-068-191300-
SOUTH CENTRAL WISCONSIN

CITY           SKY/WX    TMP DP  RH WIND       PRES   REMARKS
BARABOO/DELLS  CLOUDY    50  49  95 S6        30.11S FOG
6HR MIN TEMP:  47; 6HR MAX TEMP:  51;

LONE ROCK      PTCLDY    52  47  83 E7        30.10F HAZE
6HR MIN TEMP:  51; 6HR MAX TEMP:  54;

WATERTOWN      CLOUDY    54  54 100 S3        30.13S FOG
6HR MIN TEMP:  50; 6HR MAX TEMP:  54;

MADISON        MOCLDY    56  53  90 S8        30.12S FOG
6HR MIN TEMP:  51; 6HR MAX TEMP:  56;

MIDDLETON      CLOUDY    56  55  97 S7        30.12S
6HR MIN TEMP:  51; 6HR MAX TEMP:  56;

MONROE         FOG       54  52  94 S7        30.12S VSB 3/4
JANESVILLE     PTCLDY    54  52  94 SE6       30.12F FOG
$$

WIZ051-052-058>065-066-070>072-191300-
SOUTHEAST WISCONSIN

CITY           SKY/WX    TMP DP  RH WIND       PRES   REMARKS
MILWAUKEE      PTCLDY    57  53  86 S8        30.15S
6HR MIN TEMP:  51; 6HR MAX TEMP:  57;

WAUKESHA       FOG       50  50 100 SE3       30.16R VSB 1/2
MILWAUKEE/TIMM CLOUDY   N/A N/A N/A CALM      30.16R VSB 1/4
RACINE         CLEAR     58  54  86 S7        30.17R
6HR MIN TEMP:  50; 6HR MAX TEMP:  60;

BURLINGTON     FOG       48  48 100 CALM      30.15R VSB<1/4
6HR MIN TEMP:  46; 6HR MAX TEMP:  51;

KENOSHA        CLEAR     50  50 100 S5        30.16S FOG
6HR MIN TEMP:  46; 6HR MAX TEMP:  56;

FOND DU LAC    PTCLDY    53  51  93 S6        30.13S FOG
6HR MIN TEMP:  46; 6HR MAX TEMP:  55;

SHEBOYGAN      FOG       46  46 100 CALM      30.15S VSB<1/4
6HR MIN TEMP:  40; 6HR MAX TEMP:  49;

WEST BEND      FOG       50  50 100 CALM      30.15S VSB<1/4
JUNEAU         CLOUDY    54  54  98 SE8       30.14S FOG
6HR MIN TEMP:  49; 6HR MAX TEMP:  54;

$$

LSZ147-162-191300-
LAKE SUPERIOR

STATION/POSITION TIME  TEMP    WIND        PRES    WAVE
                       AIR SEA DIR/SP/G            HT/PER
                 (UTC) (F)     (DEG/KT/KT) (MB)    (FT/S)
W MID LAKE BUOY  1150   53 48  190/ 14/ 16 1013.7R   2/ 4
DEVILS ISLAND    1200   56     190/  9/ 13 1013.0F
PORT WING        1140   57     170/  7/ 10 1013.2F
SAXON HARBOR     1100   59     190/  4/ 16 1014.2
$$

LMZ867-665-643>646-191300-
LAKE MICHIGAN

STATION/POSITION TIME  TEMP    WIND        PRES    WAVE
                       AIR SEA DIR/SP/G            HT/PER
                 (UTC) (F)     (DEG/KT/KT) (MB)    (FT/S)
N MID LAKE BUOY  1150   55 58  190/ 19/ 21 1021.3R   4/ 5
NORTHPORT PIER   1100   58     160/  9/ 17 1020.7R
SISTER BAY       1012   53     170/  8/ 12   N/A
KEWAUNEE LAKESHO 1100   53     190/  4/  5 1020.0R
SHEBOYGAN LAKESH 1200   58 50  150/ 15/ 15 1021.2F
PORT WASHINGTON  1100   57     230/  1/  4 1021.0
ATWATER BUOY     1200   59     180/  6/  8 1022.0R
MILWAUKEE LAKESH 1100   59     170/  6/  7   N/A
S MID LAKE BUOY  1150   62 64  160/ 17/ 19 1021.5S   3/ 4
KENOSHA   LAKESH 1200   60     190/  9/ 13 1021.0R
$$

TC  - TEMPERATURE IN CELSIUS
VSB - VISIBILITY IN STATUTE MILES
WCI - WIND CHILL INDEX
HX  - HEAT INDEX



USA.gov is the U.S. government's official web portal to all federal, state and local government web resources and services.